LOT25N EPKK-EPWA

Flight info

Callsign LOT25N
Flight time 0h 28m
Altitude 23000
Route POBOK M985 KOTEK M866 LOGDA
Aircraft B738/M-SDE2E3FGHIRWXY/LB1

Departure

Time 2026-05-04 17:18
Airport Kraków John Paul II International Airport (EPKK)

Arrival

Time 2026-05-04 17:46
Airport Warsaw Chopin Airport (EPWA)
Time Latitude Longitude Altitude Speed Heading
2026-05-04 16:59 50.07362 19.80240 773 ft 0 kts 166°
2026-05-04 17:10 50.07363 19.80240 773 ft 0 kts 166°
2026-05-04 17:11 50.07376 19.80235 773 ft 2 kts 167°
2026-05-04 17:12 50.07390 19.80230 773 ft 1 kts 167°
2026-05-04 17:12 50.07417 19.80218 773 ft 2 kts 137°
2026-05-04 17:13 50.07419 19.80153 773 ft 2 kts 80°
2026-05-04 17:14 50.07417 19.80139 773 ft 0 kts 78°
2026-05-04 17:15 50.07438 19.80295 771 ft 15 kts 78°
2026-05-04 17:16 50.07573 19.80422 769 ft 8 kts
2026-05-04 17:16 50.07843 19.80336 770 ft 17 kts 348°
2026-05-04 17:17 50.07941 19.80303 772 ft 11 kts 348°
2026-05-04 17:17 50.07969 19.79901 775 ft 52 kts 258°
2026-05-04 17:18 50.07829 19.78892 776 ft 136 kts 258°
2026-05-04 17:18 50.07350 19.75359 2128 ft 170 kts 258°
2026-05-04 17:19 50.06831 19.71678 3635 ft 189 kts 257°
2026-05-04 17:19 50.06242 19.66810 4476 ft 263 kts 275°
2026-05-04 17:20 50.08544 19.62794 6771 ft 273 kts 346°
2026-05-04 17:20 50.11959 19.64609 8953 ft 282 kts 52°
2026-05-04 17:20 50.12859 19.67238 10030 ft 284 kts 65°
2026-05-04 17:21 50.14748 19.73211 10833 ft 340 kts 52°
2026-05-04 17:21 50.18429 19.77684 12953 ft 346 kts 35°
2026-05-04 17:22 50.20399 19.79844 13938 ft 350 kts 35°
2026-05-04 17:22 50.22401 19.82044 14859 ft 356 kts 35°
2026-05-04 17:23 50.28534 19.88796 17446 ft 370 kts 35°
2026-05-04 17:23 50.30656 19.91138 18261 ft 375 kts 35°
2026-05-04 17:23 50.34936 19.95869 19803 ft 384 kts 35°
2026-05-04 17:24 50.37105 19.98269 20540 ft 388 kts 35°
2026-05-04 17:24 50.43816 20.05718 22615 ft 401 kts 35°
2026-05-04 17:25 50.46089 20.08246 23048 ft 410 kts 35°
2026-05-04 17:25 50.50805 20.13502 23025 ft 419 kts 35°
2026-05-04 17:26 50.55529 20.18781 23027 ft 416 kts 35°
2026-05-04 17:26 50.63169 20.25112 23015 ft 417 kts 23°
2026-05-04 17:27 50.68474 20.28677 23028 ft 417 kts 22°
2026-05-04 17:27 50.73797 20.32246 23028 ft 417 kts 22°
2026-05-04 17:28 50.79109 20.35815 23027 ft 417 kts 22°
2026-05-04 17:29 50.87103 20.41202 23027 ft 417 kts 22°
2026-05-04 17:29 50.95052 20.46579 23027 ft 417 kts 22°
2026-05-04 17:30 51.03021 20.51991 23027 ft 417 kts 22°
2026-05-04 17:31 51.08247 20.55550 22436 ft 406 kts 22°
2026-05-04 17:31 51.15776 20.60693 21145 ft 386 kts 22°
2026-05-04 17:32 51.20569 20.63977 20329 ft 372 kts 22°
2026-05-04 17:33 51.27560 20.68780 19171 ft 366 kts 23°
2026-05-04 17:33 51.29965 20.70192 18853 ft 365 kts 19°
2026-05-04 17:34 51.37106 20.74016 18075 ft 362 kts 19°
2026-05-04 17:34 51.39491 20.75293 17766 ft 362 kts 19°
2026-05-04 17:35 51.47120 20.79564 12651 ft 435 kts 15°
2026-05-04 17:35 51.52269 20.82664 11331 ft 362 kts 24°
2026-05-04 17:35 51.54454 20.84226 10830 ft 333 kts 24°
2026-05-04 17:36 51.56489 20.85651 10398 ft 308 kts 23°
2026-05-04 17:36 51.58405 20.86981 10118 ft 298 kts 23°
2026-05-04 17:36 51.60276 20.88276 9888 ft 291 kts 23°
2026-05-04 17:36 51.62114 20.89547 9648 ft 285 kts 23°
2026-05-04 17:37 51.63913 20.90790 9416 ft 279 kts 23°
2026-05-04 17:37 51.65671 20.92007 9182 ft 274 kts 23°
2026-05-04 17:37 51.66705 20.92722 9047 ft 271 kts 23°
2026-05-04 17:37 51.68377 20.93879 8839 ft 268 kts 23°
2026-05-04 17:38 51.69624 20.94744 8679 ft 264 kts 23°
2026-05-04 17:38 51.71301 20.95907 8509 ft 257 kts 23°
2026-05-04 17:38 51.72899 20.97016 8352 ft 251 kts 23°
2026-05-04 17:38 51.74507 20.98132 8108 ft 249 kts 23°
2026-05-04 17:39 51.77621 21.00296 7664 ft 243 kts 23°
2026-05-04 17:39 51.79171 21.01375 7447 ft 242 kts 23°
2026-05-04 17:39 51.80722 21.02456 7237 ft 242 kts 23°
2026-05-04 17:40 51.82259 21.03527 7027 ft 242 kts 23°
2026-05-04 17:40 51.83826 21.04620 6362 ft 255 kts 23°
2026-05-04 17:40 51.85457 21.05759 5722 ft 253 kts 23°
2026-05-04 17:40 51.87063 21.06687 5197 ft 247 kts
2026-05-04 17:41 51.88763 21.06793 4710 ft 241 kts
2026-05-04 17:41 51.90386 21.06846 4404 ft 228 kts
2026-05-04 17:41 51.91950 21.06895 4085 ft 223 kts
2026-05-04 17:41 51.93457 21.06951 3726 ft 226 kts
2026-05-04 17:42 51.94998 21.07320 3310 ft 225 kts
2026-05-04 17:42 51.96527 21.07409 3107 ft 218 kts
2026-05-04 17:42 51.98053 21.07454 3110 ft 221 kts
2026-05-04 17:42 51.99569 21.07503 3105 ft 223 kts
2026-05-04 17:43 52.01105 21.07552 3101 ft 223 kts
2026-05-04 17:43 52.02636 21.07601 3100 ft 223 kts
2026-05-04 17:43 52.04188 21.07436 2844 ft 226 kts 341°
2026-05-04 17:43 52.05547 21.06326 2601 ft 220 kts 331°
2026-05-04 17:44 52.06843 21.05188 2437 ft 212 kts 332°
2026-05-04 17:44 52.08118 21.04077 2120 ft 207 kts 332°
2026-05-04 17:44 52.09325 21.03027 1758 ft 189 kts 332°
2026-05-04 17:44 52.10405 21.02089 1476 ft 170 kts 332°
2026-05-04 17:45 52.11359 21.01262 1256 ft 151 kts 332°
2026-05-04 17:45 52.12239 21.00496 1032 ft 142 kts 332°
2026-05-04 17:45 52.13107 20.99737 864 ft 143 kts 332°
2026-05-04 17:45 52.13986 20.98976 696 ft 145 kts 332°
2026-05-04 17:46 52.14877 20.98204 552 ft 145 kts 332°
2026-05-04 17:46 52.15756 20.97426 349 ft 140 kts 331°
2026-05-04 17:46 52.16512 20.96766 333 ft 90 kts 332°
2026-05-04 17:46 52.16847 20.96473 330 ft 32 kts 331°
2026-05-04 17:47 52.17071 20.96280 335 ft 35 kts 338°
2026-05-04 17:47 52.17287 20.96248 336 ft 28 kts
2026-05-04 17:47 52.17381 20.96268 336 ft 6 kts 33°
2026-05-04 17:47 52.17406 20.96314 335 ft 4 kts 60°
2026-05-04 17:48 52.17416 20.96372 334 ft 8 kts 93°
2026-05-04 17:48 52.17349 20.96450 334 ft 16 kts 161°
2026-05-04 17:48 52.17232 20.96537 333 ft 18 kts 152°
2026-05-04 17:48 52.17139 20.96631 333 ft 13 kts 127°
2026-05-04 17:49 52.17147 20.96749 333 ft 8 kts 64°
2026-05-04 17:49 52.17154 20.96829 333 ft 9 kts 117°
2026-05-04 17:49 52.17102 20.96894 333 ft 7 kts 152°
2026-05-04 17:49 52.17067 20.96940 333 ft 8 kts 100°
2026-05-04 17:50 52.17085 20.97007 335 ft 2 kts 73°
2026-05-04 17:50 52.17089 20.97030 336 ft 1 kts 77°
2026-05-04 17:50 52.17093 20.97058 337 ft 4 kts 77°
2026-05-04 17:50 52.17094 20.97064 337 ft 0 kts 77°